Showing default

JILIN-01-06, 43024

Orbit data source: Space-Track

JILIN-01-06, 43024 is a payload satellite owned by Changguang WJ (CN) in SSO that was launched on Tue, 21 Nov 2017 UTC via a CHANG ZHENG 6 launch vehicle from the Taiyaun Space Center, China (TSC). Payload-class satellites include a variety of spacecraft equipped with specific instruments for various scientific and technological missions. These include communications satellites like Starlink; space stations such as the ISS; scientific satellites like the Hubble; Earth observation satellites from companies like Planet Labs, Umbra, and HawkEye 360; GPS; miniature CubeSats for education and research; and military/defense satellites.

Loading next visibility...
Identifier
43024, 2017-074C
Orbit
SSO
Country
Flag of CNCN / PRC
Related business
Manufacturer
HARB/CIOMP
Mission
Operational Commercial Imaging
Bus & Motor
JL-1, Unknown motor
Mass
95 kg wet, 95 kg dry
Launch date (UTC)
2017-11-21 (8 years ago)
Launch vehicle
CHANG ZHENG 6
Launch site
Taiyaun Space Center, China (TSC)
Object type
Payload
Rocket body
Debris
Shape & HBR
Box + 2 Pan, 0.8 m
Radar Cross Section
2.000 m², Medium (>0.1 m² and < 1m²)

Expand to show TLE details & history
Last TLE update: 5 hours ago

TLE from 5 hours ago
0 JILIN-01-06
1 43024U 17074C   26037.79730488  .00009301  00000-0  30381-3 0  9997
2 43024  97.4733 139.5972 0006836 354.8917   5.2254 15.31951165453865
Epoch: 2026-02-06T19:08Z
TLE epoch observation values (Epoch: 2026-02-06T19:08:07.141Z)
Latitude
0.00002°
Longitude
75.63742°
Altitude
468.433 km
Speed
7.635 km/s
True Right ascension
09h 18m 23s
True Declination
0° 00' 00"
Sunlit
Object was in full shadow at epoch
Visualization orbit readout
Latitude
Unknown
Longitude
Unknown
Altitude
Unknown
Speed
Unknown
Apparent Right ascension
Unknown
Apparent Declination
Unknown
Sunlit
N/A
Visualization observer readout
Local Sidereal Time
02:03:34
Azimuth
Unknown
Elevation
Unknown
Doppler factor
Unknown
Orbital elements
Apogee altitude
471.624 km
Perigee altitude
462.265 km
Semi-major axis
6,845.081 km
Eccentricity
0.00068
Inclination
97.4733°
RAAN
139.5972°
Arg. of periapsis
354.8917°
True anomaly
5.23254°
Mean anomaly
5.2254°
Eccentric anomaly
5.22897°
Mean motion
3.83244 °/min
Orbital period
93.93 mins
BSTAR
0.00030381
Loading maneuver chart data...
Computing Atmospheric mass density...
Loading historical data...
Loading historical data...
Loading historical data...
Loading historical data...
Loading historical data...
Loading historical data...
Loading historical data...
Other satellites on launch #74 in the year 2017 (2017-11-21 UTC)

Documentation

Showing up to 5 results
|